Myrtle Beach, SC

5:39 PM EDT on May 22, 2017 (GMT -0400)
Myrtle Beach International

Weather History for KMYR - November, 2012

Change the Weather History Date:

Tuesday, November 20, 2012

  Actual Average Record
Temperature  
Mean Temperature 54 °F -  
Max Temperature 60 °F 63 °F 76 °F (2007)
Min Temperature 46 °F 43 °F 20 °F (1951)
Degree Days  
Heating Degree Days 11    
Growing Degree Days 4 (Base 50)    
Moisture  
Dew Point 49 °F    
Average Humidity 86    
Maximum Humidity 100    
Minimum Humidity 67    
Precipitation  
Precipitation 0.00 in - - ()
Sea Level Pressure  
Sea Level Pressure 30.08 in    
Wind  
Wind Speed 13 mph (North)    
Max Wind Speed 17 mph    
Max Gust Speed 21 mph    
Visibility 10 miles    
Events      
Averages and records for this station are not official NWS values.
T = Trace of Precipitation, MM = Missing Value Source: NWS Daily Summary

Daily Weather History Graph

Daily Weather History Graph

Search for Another Location

Airport or City:

Trip Planner

Search our weather history database for the weather conditions in past years. The results will help you decide how hot, cold, wet, or windy it might be!

Date:

Astronomy

Nov. 20, 2012 Rise Set
Actual Time 6:52 AM EST 5:09 PM EST
Civil Twilight 6:25 AM EST 5:36 PM EST
Nautical Twilight 5:55 AM EST 6:07 PM EST
Astronomical Twilight 5:25 AM EST 6:36 PM EST
Moon 12:35 PM EST (11/20) No Moon Set
Length of Visible Light 11h 10m
Length of Day
10h 17m
Waxing Crescent, 51% of the Moon is Illuminated
Nov 20
Waxing Crescent
Nov 28
Full
Dec 6
Last Quarter
Dec 13
New
Dec 20
First Quarter

Hourly Weather History & Observations

Time (EST) Temp. Windchill Dew Point Humidity Pressure Visibility Wind Dir Wind Speed Gust Speed Precip Events Conditions
12:15 AM 51.8 °F - 48.2 °F 88% 30.09 in 10.0 mi North 16.1 mph - N/A   Scattered Clouds
12:35 AM 51.8 °F - 48.2 °F 88% 30.08 in 10.0 mi North 11.5 mph - N/A   Overcast
12:55 AM 51.8 °F - 48.2 °F 88% 30.08 in 10.0 mi North 13.8 mph - N/A   Overcast
1:15 AM 51.8 °F - 48.2 °F 88% 30.08 in 10.0 mi North 16.1 mph - N/A   Overcast
1:35 AM 51.8 °F - 48.2 °F 88% 30.08 in 10.0 mi North 13.8 mph - N/A   Overcast
1:55 AM 51.8 °F - 48.2 °F 88% 30.08 in 10.0 mi North 15.0 mph 19.6 mph N/A   Overcast
2:15 AM 51.8 °F - 48.2 °F 88% 30.08 in 10.0 mi North 13.8 mph 20.7 mph N/A   Overcast
2:35 AM 51.8 °F - 48.2 °F 88% 30.08 in 10.0 mi North 13.8 mph 18.4 mph N/A   Overcast
2:55 AM 51.8 °F - 48.2 °F 88% 30.08 in 10.0 mi North 13.8 mph 19.6 mph N/A   Overcast
3:15 AM 51.8 °F - 48.2 °F 88% 30.08 in 10.0 mi North 15.0 mph - N/A   Overcast
3:35 AM 51.8 °F - 50.0 °F 94% 30.08 in 10.0 mi North 11.5 mph - N/A   Overcast
3:55 AM 51.8 °F - 48.2 °F 88% 30.08 in 10.0 mi NNW 13.8 mph 18.4 mph N/A   Overcast
4:15 AM 51.8 °F - 48.2 °F 88% 30.08 in 10.0 mi North 15.0 mph - N/A   Overcast
4:35 AM 51.8 °F - 51.8 °F 100% 30.09 in 10.0 mi North 12.7 mph - N/A   Overcast
4:55 AM 51.8 °F - 50.0 °F 94% 30.09 in 10.0 mi North 9.2 mph - N/A   Overcast
5:15 AM 51.8 °F - 50.0 °F 94% 30.10 in 10.0 mi North 9.2 mph - N/A   Overcast
5:35 AM 51.8 °F - 50.0 °F 94% 30.11 in 10.0 mi North 12.7 mph 18.4 mph N/A   Overcast
5:50 AM 51.8 °F - 48.2 °F 88% 30.11 in 10.0 mi North 12.7 mph - N/A   Overcast
5:55 AM 51.8 °F - 48.2 °F 88% 30.11 in 10.0 mi North 9.2 mph - N/A   Overcast
6:45 AM 51.8 °F - 48.2 °F 88% 30.11 in 10.0 mi North 11.5 mph - N/A   Overcast
7:45 AM 51.8 °F - 48.2 °F 88% 30.11 in 10.0 mi NNE 12.7 mph - N/A   Overcast
8:45 AM 51.8 °F - 48.2 °F 88% 30.12 in 10.0 mi North 13.8 mph - N/A   Overcast
9:50 AM 53.6 °F - 48.2 °F 82% 30.12 in 7.0 mi North 17.3 mph - N/A   Overcast
10:45 AM 55.4 °F - 48.2 °F 77% 30.12 in 10.0 mi NNW 16.1 mph - N/A   Overcast
11:45 AM 57.2 °F - 50.0 °F 77% 30.09 in 10.0 mi North 13.8 mph - N/A   Scattered Clouds
12:45 PM 59.0 °F - 48.2 °F 67% 30.07 in 10.0 mi North 13.8 mph - N/A   Scattered Clouds
1:45 PM 60.8 °F - 50.0 °F 68% 30.04 in 10.0 mi North 17.3 mph - N/A   Clear
2:45 PM 60.8 °F - 50.0 °F 68% 30.03 in 10.0 mi North 11.5 mph - N/A   Partly Cloudy
3:45 PM 60.8 °F - 50.0 °F 68% 30.04 in 10.0 mi North 13.8 mph - N/A   Clear
4:50 PM 57.2 °F - 50.0 °F 77% 30.04 in 10.0 mi North 11.5 mph - N/A   Mostly Cloudy
5:45 PM 55.4 °F - 48.2 °F 77% 30.04 in 10.0 mi North 6.9 mph - N/A   Mostly Cloudy
6:50 PM 51.8 °F - 48.2 °F 88% 30.06 in 10.0 mi North 8.1 mph - N/A   Clear
7:45 PM 51.8 °F - 48.2 °F 88% 30.07 in 10.0 mi North 8.1 mph - N/A   Clear
9:47 PM 53.6 °F - 48.2 °F 82% 30.08 in 10.0 mi North 6.9 mph - N/A   Scattered Clouds
11:15 PM 48.2 °F - 48.2 °F 100% 30.07 in 10.0 mi North 4.6 mph - N/A   Clear
11:35 PM 48.2 °F - 46.4 °F 93% 30.06 in 10.0 mi North 4.6 mph - N/A   Clear
11:55 PM 46.4 °F 44.3 °F 44.6 °F 93% 30.07 in 10.0 mi North 4.6 mph - N/A   Clear